Location: Asheville, NC
(35.6000°N, 82.5500°W)
Time: 13:53:27
(UTC-04:00)

ITAMSAT 1 - Pass Details

Date: 17 March 2018
Orbit: 784 x 796 km, 98.9° (Epoch: 18 June)

Event Time Altitude Azimuth Distance (km) Brightness Sun altitude
Rises 05:54:41 0° 7° (N) 3,300 11.2 -21.7°
Reaches altitude 10° 05:57:03 10° 3° (N) 2,365 10.3 -21.2°
Maximum altitude 06:02:08 54° 287° (WNW) 954 7.7 -20.2°
Enters shadow 06:04:02 35° 230° (SW) 1,254 8.2 -19.8°
